| time (UTC) | temp C | wind direction | speed KPH | gust KPH | rain 1hr cm | rain 24hr cm | rain mn cm | humidity % | barometer mb |
| 20260507224557 | 13 | 103 | 0.0 | 16.1 | 0.00 | 0.10 | 0.10 | 73 | 1009.3 |
| 20260507224040 | 13 | 256 | 3.2 | 16.1 | 0.00 | 0.10 | 0.10 | 73 | 1009.3 |
| 20260507223539 | 14 | 180 | 3.2 | 14.5 | 0.00 | 0.10 | 0.10 | 73 | 1009.2 |
| 20260507223053 | 14 | 139 | 4.8 | 14.5 | 0.00 | 0.10 | 0.10 | 74 | 1009.2 |
| 20260507222537 | 14 | 69 | 3.2 | 11.3 | 0.00 | 0.10 | 0.10 | 74 | 1009.2 |
| 20260507222042 | 14 | 58 | 1.6 | 12.9 | 0.00 | 0.10 | 0.10 | 72 | 1009.3 |
| 20260507221553 | 14 | 143 | 1.6 | 12.9 | 0.00 | 0.10 | 0.10 | 71 | 1009.3 |
| 20260507221036 | 14 | 211 | 1.6 | 12.9 | 0.00 | 0.10 | 0.10 | 73 | 1009.3 |
| 20260507220537 | 13 | 205 | 1.6 | 12.9 | 0.00 | 0.10 | 0.10 | 72 | 1009.1 |
| 20260507220049 | 13 | 231 | 3.2 | 12.9 | 0.00 | 0.10 | 0.10 | 72 | 1008.9 |
| 20260507215538 | 13 | 167 | 1.6 | 11.3 | 0.00 | 0.10 | 0.10 | 73 | 1008.9 |
| 20260507215037 | 13 | 52 | 3.2 | 16.1 | 0.00 | 0.10 | 0.10 | 72 | 1009.0 |
| 20260507214553 | 13 | 82 | 4.8 | 16.1 | 0.00 | 0.10 | 0.10 | 72 | 1009.0 |
| 20260507214037 | 13 | 0 | 4.8 | 12.9 | 0.00 | 0.10 | 0.10 | 73 | 1009.0 |
| 20260507213538 | 13 | 61 | 4.8 | 12.9 | 0.00 | 0.10 | 0.10 | 72 | 1009.0 |
| 20260507213046 | 13 | 101 | 1.6 | 11.3 | 0.00 | 0.10 | 0.10 | 72 | 1009.1 |
| 20260507212537 | 13 | 273 | 1.6 | 11.3 | 0.00 | 0.10 | 0.10 | 72 | 1009.2 |
| 20260507212037 | 13 | 65 | 3.2 | 9.7 | 0.00 | 0.10 | 0.10 | 72 | 1009.2 |
| 20260507211555 | 13 | 59 | 3.2 | 12.9 | 0.00 | 0.10 | 0.10 | 70 | 1009.2 |
| 20260507211037 | 13 | 0 | 3.2 | 12.9 | 0.00 | 0.10 | 0.10 | 69 | 1009.3 |
| 20260507210541 | 14 | 73 | 6.4 | 12.9 | 0.00 | 0.10 | 0.10 | 70 | 1009.1 |
| 20260507210054 | 14 | 243 | 4.8 | 14.5 | 0.00 | 0.10 | 0.10 | 70 | 1009.3 |
| 20260507205537 | 13 | 142 | 3.2 | 14.5 | 0.00 | 0.10 | 0.10 | 71 | 1009.4 |
| 20260507205103 | 13 | 169 | 4.8 | 14.5 | 0.00 | 0.10 | 0.10 | 72 | 1009.3 |
| 20260507204556 | 13 | 147 | 3.2 | 16.1 | 0.00 | 0.10 | 0.10 | 73 | 1009.3 |
| 20260507204038 | 13 | 55 | 6.4 | 16.1 | 0.00 | 0.10 | 0.10 | 70 | 1009.3 |
| 20260507203537 | 14 | 89 | 4.8 | 16.1 | 0.00 | 0.10 | 0.10 | 68 | 1009.3 |
| 20260507203055 | 14 | 120 | 4.8 | 16.1 | 0.00 | 0.10 | 0.10 | 67 | 1009.4 |
| 20260507202539 | 14 | 252 | 3.2 | 11.3 | 0.00 | 0.10 | 0.10 | 66 | 1009.4 |
| 20260507202042 | 14 | 240 | 1.6 | 9.7 | 0.00 | 0.10 | 0.10 | 68 | 1009.4 |
| 20260507201553 | 14 | 298 | 3.2 | 11.3 | 0.00 | 0.10 | 0.10 | 68 | 1009.5 |
| 20260507201039 | 13 | 161 | 3.2 | 11.3 | 0.00 | 0.10 | 0.10 | 69 | 1009.4 |
| 20260507200538 | 13 | 71 | 4.8 | 9.7 | 0.00 | 0.10 | 0.10 | 69 | 1009.4 |
| 20260507200045 | 13 | 52 | 1.6 | 16.1 | 0.00 | 0.10 | 0.10 | 70 | 1009.4 |
| 20260507195538 | 13 | 57 | 8.0 | 16.1 | 0.00 | 0.10 | 0.10 | 67 | 1009.4 |
| 20260507195038 | 13 | 85 | 8.0 | 16.1 | 0.00 | 0.10 | 0.10 | 68 | 1009.5 |
| 20260507194549 | 13 | 67 | 4.8 | 12.9 | 0.00 | 0.10 | 0.10 | 66 | 1009.6 |
| 20260507194037 | 13 | 0 | 0.0 | 12.9 | 0.00 | 0.10 | 0.10 | 67 | 1009.7 |
| 20260507193537 | 13 | 0 | 4.8 | 12.9 | 0.00 | 0.10 | 0.10 | 65 | 1010.0 |
| 20260507193054 | 13 | 84 | 0.0 | 12.9 | 0.00 | 0.10 | 0.10 | 67 | 1009.8 |
| 20260507192537 | 13 | 105 | 1.6 | 14.5 | 0.03 | 0.10 | 0.10 | 67 | 1009.8 |
| 20260507192038 | 13 | 69 | 6.4 | 14.5 | 0.03 | 0.10 | 0.10 | 68 | 1009.6 |
| 20260507191554 | 13 | 64 | 1.6 | 17.7 | 0.03 | 0.10 | 0.10 | 67 | 1009.6 |
| 20260507191037 | 12 | 89 | 6.4 | 17.7 | 0.03 | 0.10 | 0.10 | 68 | 1009.7 |
| 20260507190539 | 13 | 59 | 6.4 | 14.5 | 0.03 | 0.10 | 0.10 | 69 | 1009.5 |
| 20260507190053 | 13 | 159 | 4.8 | 12.9 | 0.03 | 0.10 | 0.10 | 67 | 1010.0 |
| 20260507185538 | 13 | 102 | 4.8 | 12.9 | 0.03 | 0.10 | 0.10 | 69 | 1010.1 |
| 20260507185040 | 12 | 64 | 3.2 | 8.0 | 0.03 | 0.10 | 0.10 | 70 | 1010.1 |
| 20260507184550 | 12 | 76 | 3.2 | 9.7 | 0.03 | 0.10 | 0.10 | 68 | 1010.2 |
| 20260507184039 | 12 | 65 | 0.0 | 9.7 | 0.03 | 0.10 | 0.10 | 68 | 1010.1 |
| 20260507183540 | 12 | 65 | 6.4 | 9.7 | 0.03 | 0.10 | 0.10 | 66 | 1010.3 |
| 20260507183046 | 13 | 73 | 1.6 | 4.8 | 0.03 | 0.10 | 0.10 | 62 | 1010.6 |
| 20260507182538 | 13 | 77 | 0.0 | 3.2 | 0.00 | 0.08 | 0.08 | 60 | 1010.5 |
| 20260507182039 | 13 | 0 | 0.0 | 12.9 | 0.00 | 0.08 | 0.08 | 60 | 1010.3 |
| 20260507181552 | 13 | 0 | 1.6 | 12.9 | 0.00 | 0.08 | 0.08 | 58 | 1010.7 |
| 20260507181038 | 13 | 0 | 0.0 | 8.0 | 0.00 | 0.08 | 0.08 | 57 | 1010.4 |
| 20260507180538 | 13 | 0 | 1.6 | 8.0 | 0.00 | 0.08 | 0.08 | 57 | 1010.4 |
| 20260507180053 | 13 | 14 | 0.0 | 8.0 | 0.00 | 0.08 | 0.08 | 56 | 1010.3 |
| 20260507175538 | 13 | 0 | 1.6 | 9.7 | 0.00 | 0.08 | 0.08 | 54 | 1010.7 |
| 20260507175038 | 13 | 69 | 3.2 | 9.7 | 0.00 | 0.08 | 0.08 | 52 | 1010.8 |
| 20260507174554 | 13 | 0 | 0.0 | 6.4 | 0.00 | 0.08 | 0.08 | 56 | 1010.8 |
| 20260507174037 | 13 | 34 | 1.6 | 6.4 | 0.00 | 0.08 | 0.08 | 53 | 1010.6 |
| 20260507173541 | 13 | 31 | 3.2 | 6.4 | 0.00 | 0.08 | 0.08 | 56 | 1010.6 |
| 20260507173053 | 13 | 345 | 1.6 | 4.8 | 0.00 | 0.08 | 0.08 | 56 | 1010.6 |
| 20260507172539 | 13 | 35 | 0.0 | 4.8 | 0.00 | 0.08 | 0.08 | 60 | 1010.7 |
| 20260507172038 | 13 | 0 | 0.0 | 3.2 | 0.00 | 0.08 | 0.08 | 62 | 1010.9 |
| 20260507171603 | 13 | 0 | 0.0 | 4.8 | 0.00 | 0.08 | 0.08 | 64 | 1010.8 |
| 20260507171038 | 13 | 352 | 0.0 | 4.8 | 0.00 | 0.08 | 0.08 | 62 | 1011.2 |
| 20260507170539 | 13 | 0 | 0.0 | 3.2 | 0.00 | 0.08 | 0.08 | 64 | 1011.1 |
| 20260507170056 | 13 | 352 | 0.0 | 4.8 | 0.00 | 0.08 | 0.08 | 64 | 1011.0 |
| 20260507165538 | 13 | 15 | 0.0 | 4.8 | 0.00 | 0.08 | 0.08 | 61 | 1010.9 |
| 20260507165038 | 13 | 0 | 0.0 | 4.8 | 0.00 | 0.08 | 0.08 | 62 | 1011.1 |
| 20260507164551 | 13 | 0 | 0.0 | 0.0 | 0.00 | 0.08 | 0.08 | 64 | 1011.2 |
| 20260507164040 | 13 | 0 | 0.0 | 0.0 | 0.00 | 0.08 | 0.08 | 64 | 1011.4 |
| 20260507163538 | 13 | 0 | 0.0 | 0.0 | 0.00 | 0.08 | 0.08 | 64 | 1011.5 |
| 20260507163054 | 13 | 0 | 0.0 | 0.0 | 0.00 | 0.08 | 0.08 | 63 | 1011.7 |
| 20260507162538 | 13 | 0 | 0.0 | 0.0 | 0.00 | 0.08 | 0.08 | 63 | 1011.6 |
| 20260507162038 | 13 | 0 | 0.0 | 0.0 | 0.00 | 0.08 | 0.08 | 66 | 1011.6 |
| 20260507161549 | 13 | 0 | 0.0 | 0.0 | 0.00 | 0.08 | 0.08 | 65 | 1011.8 |
| 20260507161041 | 13 | 0 | 0.0 | 0.0 | 0.00 | 0.08 | 0.08 | 68 | 1011.4 |
| 20260507160538 | 13 | 0 | 0.0 | 0.0 | 0.00 | 0.08 | 0.08 | 68 | 1011.3 |
| 20260507160055 | 13 | 0 | 0.0 | 0.0 | 0.00 | 0.08 | 0.08 | 67 | 1011.3 |
| 20260507155538 | 13 | 0 | 0.0 | 0.0 | 0.00 | 0.08 | 0.08 | 66 | 1011.7 |
| 20260507155038 | 13 | 0 | 0.0 | 0.0 | 0.00 | 0.08 | 0.08 | 65 | 1011.7 |
| 20260507154552 | 13 | 0 | 0.0 | 0.0 | 0.00 | 0.08 | 0.08 | 64 | 1011.8 |
| 20260507154038 | 13 | 0 | 0.0 | 0.0 | 0.00 | 0.08 | 0.08 | 65 | 1011.7 |
| 20260507153538 | 13 | 0 | 0.0 | 0.0 | 0.00 | 0.08 | 0.08 | 64 | 1011.5 |
| 20260507153058 | 13 | 0 | 0.0 | 4.8 | 0.00 | 0.08 | 0.08 | 64 | 1011.5 |
| 20260507152538 | 13 | 0 | 0.0 | 4.8 | 0.00 | 0.08 | 0.08 | 63 | 1011.6 |
| 20260507152038 | 13 | 306 | 0.0 | 4.8 | 0.00 | 0.08 | 0.08 | 64 | 1011.7 |
| 20260507151552 | 13 | 355 | 0.0 | 6.4 | 0.00 | 0.08 | 0.08 | 64 | 1011.7 |
| 20260507151040 | 13 | 5 | 1.6 | 6.4 | 0.00 | 0.08 | 0.08 | 65 | 1011.7 |
| 20260507150539 | 13 | 0 | 1.6 | 6.4 | 0.00 | 0.08 | 0.08 | 66 | 1011.6 |
| 20260507150051 | 13 | 0 | 1.6 | 6.4 | 0.00 | 0.08 | 0.08 | 67 | 1011.7 |
| 20260507145539 | 13 | 319 | 3.2 | 6.4 | 0.00 | 0.23 | 0.08 | 68 | 1011.5 |
| 20260507145038 | 13 | 360 | 0.0 | 4.8 | 0.00 | 0.23 | 0.08 | 69 | 1011.8 |
| 20260507144552 | 13 | 332 | 1.6 | 4.8 | 0.00 | 0.23 | 0.08 | 71 | 1011.9 |
| 20260507144039 | 13 | 0 | 0.0 | 6.4 | 0.00 | 0.23 | 0.08 | 72 | 1012.0 |
| 20260507143538 | 13 | 360 | 1.6 | 6.4 | 0.00 | 0.23 | 0.08 | 71 | 1012.2 |
| 20260507143053 | 13 | 9 | 0.0 | 6.4 | 0.00 | 0.23 | 0.08 | 70 | 1012.2 |
| 20260507142539 | 13 | 0 | 0.0 | 6.4 | 0.00 | 0.23 | 0.08 | 71 | 1012.2 |
| 20260507142039 | 13 | 0 | 0.0 | 6.4 | 0.00 | 0.23 | 0.08 | 71 | 1012.1 |
| 20260507141552 | 13 | 0 | 1.6 | 8.0 | 0.00 | 0.23 | 0.08 | 70 | 1012.2 |
| 20260507141038 | 13 | 20 | 1.6 | 8.0 | 0.00 | 0.23 | 0.08 | 71 | 1012.2 |
| 20260507140539 | 13 | 52 | 0.0 | 4.8 | 0.00 | 0.23 | 0.08 | 70 | 1012.3 |
| 20260507140054 | 13 | 0 | 0.0 | 4.8 | 0.00 | 0.23 | 0.08 | 69 | 1012.3 |
| 20260507135541 | 13 | 331 | 1.6 | 6.4 | 0.00 | 0.25 | 0.08 | 69 | 1012.4 |
| 20260507135038 | 13 | 349 | 1.6 | 6.4 | 0.00 | 0.25 | 0.08 | 68 | 1012.3 |
| 20260507134555 | 13 | 0 | 0.0 | 4.8 | 0.00 | 0.25 | 0.08 | 70 | 1012.4 |
| 20260507134038 | 13 | 0 | 1.6 | 4.8 | 0.00 | 0.25 | 0.08 | 70 | 1012.3 |
| 20260507133538 | 13 | 9 | 1.6 | 6.4 | 0.00 | 0.25 | 0.08 | 70 | 1012.2 |
| 20260507133057 | 13 | 352 | 1.6 | 9.7 | 0.00 | 0.25 | 0.08 | 70 | 1012.0 |
| 20260507132537 | 13 | 349 | 3.2 | 9.7 | 0.00 | 0.25 | 0.08 | 69 | 1012.1 |
| 20260507132041 | 13 | 327 | 3.2 | 9.7 | 0.00 | 0.25 | 0.08 | 69 | 1012.0 |
| 20260507131601 | 13 | 0 | 1.6 | 6.4 | 0.00 | 0.25 | 0.08 | 71 | 1012.1 |
| 20260507131039 | 13 | 0 | 0.0 | 4.8 | 0.00 | 0.25 | 0.08 | 73 | 1012.1 |
| 20260507130538 | 13 | 0 | 0.0 | 4.8 | 0.00 | 0.25 | 0.08 | 73 | 1012.0 |
| 20260507130107 | 13 | 321 | 1.6 | 4.8 | 0.00 | 0.25 | 0.08 | 74 | 1012.0 |
| 20260507125539 | 13 | 355 | 0.0 | 4.8 | 0.00 | 0.25 | 0.08 | 75 | 1012.2 |
| 20260507125038 | 13 | 0 | 1.6 | 4.8 | 0.00 | 0.25 | 0.08 | 74 | 1012.3 |
| 20260507124554 | 13 | 9 | 0.0 | 4.8 | 0.00 | 0.25 | 0.08 | 75 | 1012.2 |
| 20260507124038 | 13 | 0 | 0.0 | 6.4 | 0.00 | 0.25 | 0.08 | 76 | 1012.0 |
| 20260507123537 | 13 | 0 | 0.0 | 6.4 | 0.00 | 0.25 | 0.08 | 77 | 1012.0 |
| 20260507123049 | 13 | 330 | 1.6 | 6.4 | 0.00 | 0.25 | 0.08 | 78 | 1011.9 |
| 20260507122537 | 13 | 337 | 1.6 | 4.8 | 0.00 | 0.25 | 0.08 | 79 | 1012.0 |
| 20260507122037 | 13 | 352 | 0.0 | 4.8 | 0.00 | 0.25 | 0.08 | 80 | 1012.0 |
| 20260507121603 | 13 | 321 | 1.6 | 4.8 | 0.00 | 0.25 | 0.08 | 80 | 1011.8 |
| 20260507121038 | 13 | 0 | 0.0 | 4.8 | 0.00 | 0.25 | 0.08 | 82 | 1011.7 |
| 20260507120537 | 13 | 0 | 1.6 | 4.8 | 0.00 | 0.25 | 0.08 | 81 | 1011.7 |
| 20260507120054 | 13 | 311 | 0.0 | 0.0 | 0.00 | 0.25 | 0.08 | 83 | 1011.5 |
| 20260507115538 | 13 | 0 | 0.0 | 0.0 | 0.00 | 0.25 | 0.08 | 84 | 1011.5 |
| 20260507115037 | 13 | 0 | 0.0 | 0.0 | 0.00 | 0.25 | 0.08 | 83 | 1011.6 |
| 20260507114613 | 13 | 0 | 0.0 | 0.0 | 0.00 | 0.25 | 0.08 | 84 | 1011.9 |
| 20260507114039 | 12 | 0 | 0.0 | 0.0 | 0.00 | 0.25 | 0.08 | 84 | 1011.9 |
| 20260507113538 | 12 | 0 | 0.0 | 0.0 | 0.00 | 0.25 | 0.08 | 83 | 1011.7 |
| 20260507113048 | 12 | 0 | 0.0 | 0.0 | 0.00 | 0.25 | 0.08 | 84 | 1011.7 |
| 20260507112537 | 12 | 0 | 0.0 | 1.6 | 0.00 | 0.25 | 0.08 | 85 | 1011.6 |
| 20260507112038 | 12 | 0 | 0.0 | 1.6 | 0.00 | 0.25 | 0.08 | 84 | 1011.4 |
| 20260507111551 | 12 | 0 | 0.0 | 1.6 | 0.00 | 0.25 | 0.08 | 84 | 1011.5 |
| 20260507111038 | 12 | 0 | 0.0 | 0.0 | 0.00 | 0.25 | 0.08 | 84 | 1011.6 |
| 20260507110539 | 12 | 0 | 0.0 | 1.6 | 0.00 | 0.25 | 0.08 | 84 | 1011.6 |
| 20260507110052 | 12 | 0 | 0.0 | 1.6 | 0.00 | 0.25 | 0.08 | 85 | 1011.8 |
| 20260507105538 | 12 | 0 | 0.0 | 3.2 | 0.00 | 0.25 | 0.08 | 84 | 1011.6 |
| 20260507105041 | 12 | 0 | 0.0 | 3.2 | 0.00 | 0.25 | 0.08 | 84 | 1011.5 |
| 20260507104552 | 12 | 0 | 0.0 | 0.0 | 0.00 | 0.25 | 0.08 | 84 | 1011.5 |
| 20260507104038 | 12 | 0 | 0.0 | 0.0 | 0.00 | 0.25 | 0.08 | 84 | 1011.4 |
| 20260507103539 | 12 | 0 | 0.0 | 0.0 | 0.00 | 0.25 | 0.08 | 85 | 1011.5 |
| 20260507103049 | 12 | 0 | 0.0 | 0.0 | 0.00 | 0.25 | 0.08 | 84 | 1011.3 |
| 20260507102537 | 12 | 0 | 0.0 | 0.0 | 0.00 | 0.25 | 0.08 | 84 | 1011.4 |
| 20260507102038 | 12 | 0 | 0.0 | 0.0 | 0.00 | 0.25 | 0.08 | 84 | 1011.1 |
| 20260507101547 | 12 | 0 | 0.0 | 0.0 | 0.00 | 0.25 | 0.08 | 84 | 1011.1 |
| 20260507101036 | 12 | 0 | 0.0 | 0.0 | 0.00 | 0.25 | 0.08 | 85 | 1011.1 |
| 20260507100539 | 12 | 0 | 0.0 | 0.0 | 0.00 | 0.25 | 0.08 | 85 | 1011.0 |
| 20260507100053 | 12 | 0 | 0.0 | 0.0 | 0.00 | 0.25 | 0.08 | 87 | 1011.1 |
| 20260507095541 | 12 | 0 | 0.0 | 0.0 | 0.00 | 0.25 | 0.08 | 85 | 1011.3 |
| 20260507095038 | 12 | 0 | 0.0 | 0.0 | 0.00 | 0.25 | 0.08 | 85 | 1011.3 |
| 20260507094553 | 12 | 0 | 0.0 | 0.0 | 0.00 | 0.25 | 0.08 | 85 | 1011.3 |
| 20260507094038 | 12 | 0 | 0.0 | 0.0 | 0.00 | 0.25 | 0.08 | 85 | 1011.1 |
| 20260507093538 | 12 | 0 | 0.0 | 0.0 | 0.00 | 0.25 | 0.08 | 87 | 1011.1 |
| 20260507093055 | 12 | 0 | 0.0 | 0.0 | 0.00 | 0.25 | 0.08 | 86 | 1011.1 |
| 20260507092538 | 12 | 0 | 0.0 | 0.0 | 0.00 | 0.25 | 0.08 | 87 | 1011.0 |
| 20260507092038 | 12 | 0 | 0.0 | 0.0 | 0.00 | 0.25 | 0.08 | 87 | 1011.0 |
| 20260507091557 | 12 | 0 | 0.0 | 0.0 | 0.00 | 0.25 | 0.08 | 86 | 1011.2 |
| 20260507091038 | 12 | 0 | 0.0 | 1.6 | 0.00 | 0.25 | 0.08 | 87 | 1011.2 |
| 20260507090538 | 12 | 0 | 0.0 | 1.6 | 0.00 | 0.25 | 0.08 | 86 | 1010.8 |
| 20260507090052 | 12 | 0 | 0.0 | 0.0 | 0.00 | 0.25 | 0.08 | 87 | 1010.8 |
| 20260507085538 | 12 | 0 | 0.0 | 0.0 | 0.00 | 0.25 | 0.08 | 88 | 1010.7 |
| 20260507085038 | 13 | 0 | 0.0 | 0.0 | 0.00 | 0.25 | 0.08 | 89 | 1010.5 |
| 20260507084548 | 13 | 0 | 0.0 | 0.0 | 0.00 | 0.25 | 0.08 | 89 | 1010.5 |
| 20260507084037 | 13 | 0 | 0.0 | 0.0 | 0.00 | 0.25 | 0.08 | 89 | 1010.8 |
| 20260507083538 | 13 | 0 | 0.0 | 0.0 | 0.00 | 0.25 | 0.08 | 90 | 1010.8 |
| 20260507083048 | 13 | 0 | 0.0 | 0.0 | 0.00 | 0.25 | 0.08 | 90 | 1010.8 |
| 20260507082538 | 13 | 0 | 0.0 | 0.0 | 0.00 | 0.25 | 0.08 | 90 | 1010.9 |
| 20260507082038 | 13 | 0 | 0.0 | 0.0 | 0.00 | 0.25 | 0.08 | 90 | 1011.1 |
| 20260507081550 | 13 | 0 | 0.0 | 0.0 | 0.00 | 0.25 | 0.08 | 90 | 1011.0 |
| 20260507081038 | 13 | 0 | 0.0 | 1.6 | 0.00 | 0.25 | 0.08 | 89 | 1011.0 |
| 20260507080539 | 13 | 0 | 0.0 | 3.2 | 0.00 | 0.25 | 0.08 | 89 | 1011.1 |
| 20260507080048 | 13 | 0 | 0.0 | 4.8 | 0.00 | 0.25 | 0.08 | 89 | 1010.6 |
| 20260507075538 | 13 | 0 | 0.0 | 4.8 | 0.00 | 0.25 | 0.08 | 89 | 1010.3 |
| 20260507075038 | 13 | 355 | 0.0 | 3.2 | 0.00 | 0.25 | 0.08 | 90 | 1010.2 |
| 20260507074558 | 13 | 0 | 0.0 | 0.0 | 0.00 | 0.25 | 0.08 | 90 | 1010.3 |
| 20260507074038 | 13 | 0 | 0.0 | 0.0 | 0.00 | 0.25 | 0.08 | 90 | 1010.3 |
| 20260507073542 | 13 | 0 | 0.0 | 0.0 | 0.00 | 0.25 | 0.08 | 90 | 1010.2 |
| 20260507073042 | 13 | 0 | 0.0 | 0.0 | 0.00 | 0.25 | 0.08 | 90 | 1010.1 |
| 20260507072538 | 13 | 0 | 0.0 | 0.0 | 0.00 | 0.25 | 0.08 | 90 | 1009.9 |
| 20260507072037 | 13 | 0 | 0.0 | 3.2 | 0.00 | 0.25 | 0.08 | 89 | 1009.9 |
| 20260507071552 | 13 | 0 | 0.0 | 3.2 | 0.00 | 0.25 | 0.08 | 90 | 1010.0 |
| 20260507071038 | 13 | 0 | 0.0 | 3.2 | 0.00 | 0.25 | 0.08 | 90 | 1010.0 |
| 20260507070538 | 13 | 0 | 0.0 | 0.0 | 0.03 | 0.25 | 0.08 | 89 | 1010.0 |
| 20260507070051 | 13 | 0 | 0.0 | 0.0 | 0.03 | 0.25 | 0.08 | 89 | 1010.2 |
| 20260507065538 | 13 | 0 | 0.0 | 1.6 | 0.03 | 0.25 | 0.08 | 89 | 1010.2 |
| 20260507065038 | 13 | 0 | 0.0 | 4.8 | 0.03 | 0.25 | 0.08 | 89 | 1010.1 |
| 20260507064548 | 13 | 0 | 0.0 | 6.4 | 0.03 | 0.25 | 0.08 | 89 | 1009.9 |
| 20260507064041 | 13 | 349 | 1.6 | 8.0 | 0.03 | 0.25 | 0.08 | 89 | 1010.0 |
| 20260507063536 | 13 | 9 | 1.6 | 8.0 | 0.03 | 0.25 | 0.08 | 90 | 1010.0 |
| 20260507063048 | 14 | 346 | 1.6 | 4.8 | 0.03 | 0.25 | 0.08 | 91 | 1010.2 |
| 20260507062538 | 14 | 0 | 1.6 | 6.4 | 0.03 | 0.25 | 0.08 | 91 | 1010.3 |
| 20260507062042 | 14 | 0 | 1.6 | 6.4 | 0.05 | 0.25 | 0.08 | 91 | 1010.4 |
| 20260507061552 | 14 | 0 | 0.0 | 4.8 | 0.05 | 0.25 | 0.08 | 90 | 1009.9 |
| 20260507061038 | 14 | 0 | 0.0 | 4.8 | 0.05 | 0.25 | 0.08 | 90 | 1009.6 |
| 20260507060538 | 14 | 0 | 0.0 | 6.4 | 0.03 | 0.23 | 0.05 | 90 | 1009.6 |
| 20260507060049 | 15 | 303 | 0.0 | 6.4 | 0.03 | 0.23 | 0.05 | 90 | 1009.0 |
| 20260507055538 | 15 | 0 | 0.0 | 8.0 | 0.03 | 0.23 | 0.05 | 90 | 1008.7 |
| 20260507055042 | 15 | 22 | 1.6 | 9.7 | 0.03 | 0.23 | 0.05 | 90 | 1008.6 |
| 20260507054621 | 15 | 66 | 1.6 | 9.7 | 0.03 | 0.23 | 0.05 | 90 | 1008.4 |
| 20260507054039 | 15 | 0 | 0.0 | 6.4 | 0.05 | 0.23 | 0.05 | 90 | 1008.7 |
| 20260507053538 | 15 | 0 | 0.0 | 3.2 | 0.05 | 0.23 | 0.05 | 89 | 1008.7 |
| 20260507053054 | 15 | 0 | 0.0 | 3.2 | 0.05 | 0.23 | 0.05 | 89 | 1009.0 |
| 20260507052536 | 16 | 0 | 0.0 | 0.0 | 0.05 | 0.23 | 0.05 | 89 | 1009.4 |
| 20260507052038 | 16 | 0 | 0.0 | 4.8 | 0.03 | 0.20 | 0.03 | 88 | 1009.7 |
| 20260507051549 | 16 | 0 | 0.0 | 6.4 | 0.03 | 0.20 | 0.03 | 88 | 1009.9 |
| 20260507051038 | 16 | 322 | 3.2 | 6.4 | 0.03 | 0.20 | 0.03 | 88 | 1009.9 |
| 20260507050537 | 16 | 352 | 0.0 | 3.2 | 0.03 | 0.20 | 0.03 | 89 | 1010.0 |
| 20260507050054 | 17 | 0 | 0.0 | 3.2 | 0.03 | 0.20 | 0.03 | 89 | 1009.9 |
| 20260507045538 | 17 | 0 | 0.0 | 4.8 | 0.03 | 0.20 | 0.03 | 88 | 1009.7 |
| 20260507045038 | 17 | 335 | 0.0 | 4.8 | 0.03 | 0.20 | 0.03 | 89 | 1009.7 |
| 20260507044553 | 17 | 5 | 0.0 | 4.8 | 0.03 | 0.20 | 0.03 | 88 | 1009.2 |
| 20260507044040 | 17 | 276 | 1.6 | 4.8 | 0.00 | 0.18 | 0.00 | 88 | 1009.3 |
| 20260507043538 | 17 | 0 | 1.6 | 4.8 | 0.00 | 0.18 | 0.00 | 89 | 1009.3 |
| 20260507043048 | 18 | 0 | 0.0 | 0.0 | 0.00 | 0.18 | 0.00 | 90 | 1009.5 |
| 20260507042539 | 18 | 0 | 0.0 | 0.0 | 0.00 | 0.18 | 0.00 | 90 | 1009.3 |
| 20260507042038 | 18 | 0 | 0.0 | 0.0 | 0.00 | 0.18 | 0.00 | 90 | 1009.1 |
| 20260507041559 | 18 | 0 | 0.0 | 0.0 | 0.00 | 0.18 | 0.00 | 90 | 1008.9 |
| 20260507041038 | 18 | 0 | 0.0 | 0.0 | 0.00 | 0.18 | 0.00 | 90 | 1008.9 |
| 20260507040538 | 18 | 0 | 0.0 | 0.0 | 0.00 | 0.18 | 0.00 | 90 | 1009.0 |
| 20260507040049 | 18 | 0 | 0.0 | 0.0 | 0.00 | 0.18 | 0.00 | 90 | 1009.1 |
| 20260507035535 | 18 | 0 | 0.0 | 0.0 | 0.00 | 0.18 | 0.18 | 89 | 1009.0 |
| 20260507035039 | 18 | 0 | 0.0 | 0.0 | 0.00 | 0.18 | 0.18 | 90 | 1008.9 |
| 20260507034558 | 18 | 0 | 0.0 | 0.0 | 0.00 | 0.18 | 0.18 | 90 | 1008.9 |
| 20260507034038 | 18 | 0 | 0.0 | 0.0 | 0.00 | 0.18 | 0.18 | 89 | 1008.8 |
| 20260507033538 | 18 | 0 | 0.0 | 0.0 | 0.00 | 0.18 | 0.18 | 89 | 1008.8 |
| 20260507033054 | 18 | 0 | 0.0 | 0.0 | 0.00 | 0.18 | 0.18 | 89 | 1008.6 |
| 20260507032538 | 18 | 0 | 0.0 | 0.0 | 0.00 | 0.18 | 0.18 | 89 | 1008.6 |
| 20260507032038 | 18 | 0 | 0.0 | 0.0 | 0.00 | 0.18 | 0.18 | 89 | 1008.6 |
| 20260507031603 | 18 | 0 | 0.0 | 0.0 | 0.00 | 0.18 | 0.18 | 89 | 1008.7 |
| 20260507031038 | 18 | 0 | 0.0 | 0.0 | 0.00 | 0.18 | 0.18 | 89 | 1009.0 |
| 20260507030537 | 18 | 0 | 0.0 | 0.0 | 0.00 | 0.18 | 0.18 | 89 | 1009.1 |
| 20260507030056 | 18 | 0 | 0.0 | 0.0 | 0.00 | 0.18 | 0.18 | 88 | 1009.0 |
| 20260507025538 | 18 | 0 | 0.0 | 0.0 | 0.00 | 0.18 | 0.18 | 88 | 1008.7 |
| 20260507025039 | 18 | 0 | 0.0 | 0.0 | 0.00 | 0.18 | 0.18 | 88 | 1008.7 |
| 20260507024555 | 18 | 0 | 0.0 | 0.0 | 0.00 | 0.18 | 0.18 | 88 | 1008.8 |
| 20260507024037 | 18 | 0 | 0.0 | 0.0 | 0.00 | 0.18 | 0.18 | 88 | 1008.7 |
| 20260507023538 | 18 | 0 | 0.0 | 0.0 | 0.00 | 0.18 | 0.18 | 88 | 1008.6 |
| 20260507023104 | 18 | 0 | 0.0 | 0.0 | 0.00 | 0.18 | 0.18 | 88 | 1008.2 |
| 20260507022643 | 18 | 0 | 0.0 | 0.0 | 0.00 | 0.18 | 0.18 | 88 | 1007.9 |
| 20260507022535 | 18 | 0 | 0.0 | 0.0 | 0.00 | 0.18 | 0.18 | 88 | 1007.9 |
| 20260507022036 | 18 | 0 | 0.0 | 1.6 | 0.00 | 0.18 | 0.18 | 87 | 1007.9 |
| 20260507021546 | 18 | 0 | 0.0 | 1.6 | 0.00 | 0.18 | 0.18 | 86 | 1008.0 |
| 20260507021034 | 18 | 0 | 0.0 | 0.0 | 0.00 | 0.18 | 0.18 | 86 | 1008.1 |
| 20260507020536 | 18 | 0 | 0.0 | 0.0 | 0.00 | 0.18 | 0.18 | 86 | 1008.3 |
| 20260507020056 | 18 | 0 | 0.0 | 0.0 | 0.00 | 0.18 | 0.18 | 86 | 1008.6 |
| 20260507015535 | 18 | 0 | 0.0 | 0.0 | 0.00 | 0.18 | 0.18 | 86 | 1008.4 |
| 20260507015035 | 19 | 0 | 0.0 | 0.0 | 0.00 | 0.18 | 0.18 | 85 | 1008.5 |
| 20260507014600 | 19 | 0 | 0.0 | 0.0 | 0.00 | 0.18 | 0.18 | 83 | 1008.6 |
| 20260507014035 | 19 | 0 | 0.0 | 0.0 | 0.00 | 0.18 | 0.18 | 83 | 1008.5 |
| 20260507013534 | 19 | 0 | 0.0 | 1.6 | 0.00 | 0.18 | 0.18 | 82 | 1008.6 |
| 20260507013047 | 19 | 0 | 0.0 | 1.6 | 0.00 | 0.18 | 0.18 | 82 | 1008.7 |
| 20260507012534 | 20 | 0 | 0.0 | 0.0 | 0.00 | 0.18 | 0.18 | 82 | 1008.7 |
| 20260507012035 | 20 | 0 | 0.0 | 1.6 | 0.00 | 0.18 | 0.18 | 81 | 1008.7 |
| 20260507011548 | 20 | 0 | 0.0 | 1.6 | 0.00 | 0.18 | 0.18 | 80 | 1008.7 |
| 20260507011034 | 20 | 0 | 0.0 | 0.0 | 0.00 | 0.18 | 0.18 | 80 | 1008.5 |
| 20260507010534 | 20 | 0 | 0.0 | 6.4 | 0.00 | 0.18 | 0.18 | 80 | 1008.2 |
| 20260507010047 | 20 | 0 | 0.0 | 6.4 | 0.00 | 0.18 | 0.18 | 79 | 1008.2 |
| 20260507005536 | 20 | 0 | 0.0 | 6.4 | 0.00 | 0.18 | 0.18 | 79 | 1008.4 |
| 20260507005034 | 20 | 0 | 1.6 | 6.4 | 0.00 | 0.18 | 0.18 | 79 | 1008.2 |
| 20260507004544 | 20 | 0 | 0.0 | 1.6 | 0.00 | 0.18 | 0.18 | 79 | 1008.1 |
| 20260507004035 | 20 | 0 | 0.0 | 3.2 | 0.00 | 0.18 | 0.18 | 79 | 1008.0 |
| 20260507003538 | 20 | 180 | 0.0 | 4.8 | 0.00 | 0.18 | 0.18 | 78 | 1008.1 |
| 20260507003051 | 20 | 221 | 0.0 | 6.4 | 0.00 | 0.18 | 0.18 | 78 | 1008.0 |
| 20260507002534 | 20 | 0 | 0.0 | 6.4 | 0.00 | 0.18 | 0.18 | 78 | 1008.2 |
| 20260507002035 | 20 | 207 | 0.0 | 8.0 | 0.00 | 0.18 | 0.18 | 78 | 1008.1 |
| 20260507001548 | 21 | 0 | 1.6 | 9.7 | 0.00 | 0.18 | 0.18 | 78 | 1008.1 |
| 20260507001034 | 21 | 196 | 3.2 | 9.7 | 0.00 | 0.18 | 0.18 | 78 | 1008.3 |
| 20260507000538 | 21 | 0 | 1.6 | 9.7 | 0.00 | 0.18 | 0.18 | 78 | 1008.1 |
| 20260507000048 | 21 | 0 | 0.0 | 8.0 | 0.00 | 0.18 | 0.18 | 77 | 1008.1 |
| 20260506235535 | 21 | 216 | 0.0 | 8.0 | 0.00 | 0.18 | 0.18 | 77 | 1008.2 |
| 20260506235035 | 21 | 278 | 1.6 | 8.0 | 0.00 | 0.18 | 0.18 | 77 | 1007.8 |
| 20260506234554 | 21 | 0 | 0.0 | 8.0 | 0.00 | 0.18 | 0.18 | 77 | 1007.8 |
| 20260506234035 | 21 | 0 | 1.6 | 9.7 | 0.00 | 0.18 | 0.18 | 77 | 1007.8 |
| 20260506233537 | 21 | 254 | 3.2 | 12.9 | 0.00 | 0.18 | 0.18 | 77 | 1007.6 |
| 20260506233055 | 21 | 121 | 3.2 | 12.9 | 0.00 | 0.18 | 0.18 | 76 | 1007.5 |
| 20260506232535 | 21 | 167 | 4.8 | 12.9 | 0.00 | 0.18 | 0.18 | 76 | 1007.6 |
| 20260506232035 | 21 | 240 | 1.6 | 12.9 | 0.00 | 0.18 | 0.18 | 76 | 1007.5 |
| 20260506231545 | 21 | 248 | 1.6 | 14.5 | 0.00 | 0.18 | 0.18 | 76 | 1007.6 |
| 20260506231035 | 21 | 0 | 3.2 | 16.1 | 0.00 | 0.18 | 0.18 | 75 | 1007.7 |
| 20260506230537 | 21 | 236 | 1.6 | 16.1 | 0.00 | 0.18 | 0.18 | 75 | 1007.7 |
| 20260506230053 | 21 | 190 | 3.2 | 14.5 | 0.00 | 0.18 | 0.18 | 75 | 1007.6 |
| 20260506225539 | 21 | 0 | 4.8 | 14.5 | 0.00 | 0.18 | 0.18 | 75 | 1007.7 |
| 20260506225035 | 21 | 138 | 1.6 | 9.7 | 0.00 | 0.18 | 0.18 | 74 | 1007.7 |